Location: Baix
(44.7118°N, 4.7648°E)
Time: 19:21:53
(UTC+00:00)

CZ-4B R/B - Pass Details

Date: 07 August 2020
Orbit: 391 x 462 km, 97.6° (Epoch: 24 September)

Event Time Altitude Azimuth Distance (km) Brightness Sun altitude
Rises 03:54:50 0° 164° (SSE) 2,423 5.0 -7.0°
Reaches altitude 10° 03:56:52 10° 163° (SSE) 1,547 4.0 -6.7°
Maximum altitude 04:00:11 81° 76° (ENE) 442 1.5 -6.2°
Drops below altitude 10° 04:03:26 10° 349° (N) 1,520 4.3 -5.7°
Sets 04:05:25 0° 349° (NNW) 2,377 5.3 -5.4°
